Cleveland Burke, OH

4:03 AM EDT on October 21, 2017 (GMT -0400)
Burke Lakefront

Weather History for KBKL - September, 2012

Change the Weather History Date:

Friday, September 21, 2012

  Actual Average Record
Temperature  
Mean Temperature 62 °F -  
Max Temperature 69 °F 69 °F 88 °F (2010)
Min Temperature 55 °F 55 °F 48 °F (2006)
Degree Days  
Heating Degree Days 2    
Growing Degree Days 12 (Base 50)    
Moisture  
Dew Point 49 °F    
Average Humidity 62    
Maximum Humidity 87    
Minimum Humidity 37    
Precipitation  
Precipitation 0.39 in - - ()
Sea Level Pressure  
Sea Level Pressure 29.90 in    
Wind  
Wind Speed 9 mph (SW)    
Max Wind Speed 14 mph    
Max Gust Speed 26 mph    
Visibility 10 miles    
Events Rain    
Averages and records for this station are not official NWS values.
T = Trace of Precipitation, MM = Missing Value Source: NWS Daily Summary

Daily Weather History Graph

Daily Weather History Graph

Search for Another Location

Airport or City:

Trip Planner

Search our weather history database for the weather conditions in past years. The results will help you decide how hot, cold, wet, or windy it might be!

Date:

Astronomy

Sep. 21, 2012 Rise Set
Actual Time 7:13 AM EDT 7:24 PM EDT
Civil Twilight 6:45 AM EDT 7:52 PM EDT
Nautical Twilight 6:13 AM EDT 8:24 PM EDT
Astronomical Twilight 5:40 AM EDT 8:57 PM EDT
Moon 1:38 PM EDT 11:19 PM EDT
Length of Visible Light 13h 06m
Length of Day
12h 11m
Waxing Crescent, 37% of the Moon is Illuminated
Sep 21
Waxing Crescent
Sep 22
First Quarter
Sep 29
Full
Oct 8
Last Quarter
Oct 15
New

Hourly Weather History & Observations

Time (EDT) Temp. Dew Point Humidity Pressure Visibility Wind Dir Wind Speed Gust Speed Precip Events Conditions
12:53 AM 64.9 °F 51.1 °F 61% 29.91 in 10.0 mi SSW 8.1 mph - N/A   Clear
1:53 AM 64.0 °F 52.0 °F 65% 29.91 in 10.0 mi SW 9.2 mph - N/A   Clear
2:53 AM 64.0 °F 53.1 °F 67% 29.91 in 10.0 mi SW 10.4 mph - N/A   Mostly Cloudy
3:53 AM 63.0 °F 53.1 °F 70% 29.91 in 10.0 mi SSW 8.1 mph - N/A   Mostly Cloudy
4:53 AM 62.1 °F 53.1 °F 72% 29.91 in 10.0 mi SW 9.2 mph - N/A   Clear
5:53 AM 61.0 °F 53.1 °F 75% 29.91 in 10.0 mi SW 11.5 mph - N/A   Mostly Cloudy
6:53 AM 61.0 °F 53.1 °F 75% 29.91 in 10.0 mi SW 8.1 mph - N/A   Overcast
7:53 AM 60.1 °F 53.1 °F 78% 29.92 in 10.0 mi SW 9.2 mph - N/A   Overcast
8:53 AM 61.0 °F 54.0 °F 78% 29.92 in 10.0 mi SW 5.8 mph - N/A   Overcast
9:53 AM 62.1 °F 52.0 °F 70% 29.94 in 10.0 mi SW 8.1 mph - N/A   Clear
10:53 AM 63.0 °F 50.0 °F 63% 29.95 in 10.0 mi WSW 9.2 mph - N/A   Clear
11:53 AM 64.9 °F 50.0 °F 58% 29.95 in 10.0 mi WSW 9.2 mph - N/A   Clear
12:53 PM 64.9 °F 46.0 °F 50% 29.96 in 10.0 mi SW 13.8 mph - N/A   Clear
1:53 PM 66.9 °F 45.0 °F 45% 29.94 in 10.0 mi WSW 10.4 mph - N/A   Clear
2:53 PM 68.0 °F 45.0 °F 43% 29.92 in 10.0 mi SW 12.7 mph - N/A   Clear
3:53 PM 68.0 °F 41.0 °F 37% 29.90 in 10.0 mi SW 12.7 mph - N/A   Clear
4:53 PM 68.0 °F 41.0 °F 37% 29.88 in 10.0 mi SSW 10.4 mph - N/A   Partly Cloudy
5:53 PM 66.9 °F 41.0 °F 39% 29.87 in 10.0 mi SSW 8.1 mph - N/A   Mostly Cloudy
6:53 PM 66.9 °F 41.0 °F 39% 29.86 in 10.0 mi South 8.1 mph - N/A   Overcast
7:53 PM 60.1 °F 48.0 °F 64% 29.90 in 10.0 mi SSW 13.8 mph 26.5 mph 0.01 in Rain Light Rain
8:53 PM 57.9 °F 50.0 °F 75% 29.86 in 10.0 mi South 4.6 mph - 0.01 in Rain Light Rain
9:53 PM 57.9 °F 50.0 °F 75% 29.82 in 10.0 mi Calm Calm - N/A   Overcast
10:53 PM 57.9 °F 50.0 °F 75% 29.81 in 5.0 mi NW 12.7 mph - 0.08 in Rain Rain
11:53 PM 55.9 °F 52.0 °F 87% 29.80 in 3.0 mi NNW 6.9 mph - 0.29 in Rain Heavy Rain